ピゴット-リニア-コワルスキー彗星

226P/Pigott-LINEAR-Kowalski (2016)

English version
Home page
Updated on December 17, 2017

---------------------------------------------------------------------

・ プロフィール

・ 写真集

・ 軌道要素

Epoch 2016 July 31.0 TT = JDT 2457600.5
T 2016 Sept. 5.14749 TT                                 MPCW
q   1.7763664            (2000.0)            P               Q
n   0.13460936     Peri.  341.12745     +0.74434638     -0.36058936
a   3.7706759      Node    54.00654     +0.66634429     +0.34562785
e   0.5288997      Incl.   44.00334     +0.04397460     +0.86632367
P   7.32
From 253 observations 2003 Jan. 5-2016 Aug. 15, mean residual 0".7.
     Nongravitational parameters A1 = -0.35, A2 = +0.0138.

・ 星図

・ 光度変化

        m1 = 7.0 + 5 logΔ + 30 log r(t - 15)

---------------------------------------------------------------------

軌道要素はM.P.E.C. 2016-Q04に掲載されたものです。
星図はステラナビゲータ Ver.10 (アストロアーツ) で作成したものです。
光度グラフはComet for Windowsで作成したものです。

---------------------------------------------------------------------

Copyright(C) Seiichi Yoshida (comet@aerith.net). All rights reserved.